Ludington, MI

11:55 PM EDT on October 23, 2019 (GMT -0400)
Mason County

Weather History for KLDM - August, 2019

Change the Weather History Date:

Thursday, August 1, 2019

  Actual Average Record
Temperature  
Mean Temperature 62 °F -  
Max Temperature 77 °F 80 °F 97 °F (1988)
Min Temperature 46 °F 59 °F 43 °F (1978)
Degree Days  
Heating Degree Days 4    
Growing Degree Days 12 (Base 50)    
Moisture  
Dew Point 53 °F    
Average Humidity 73    
Maximum Humidity 98    
Minimum Humidity 35    
Precipitation  
Precipitation 0.00 in - - ()
Sea Level Pressure  
Sea Level Pressure 30.19 in    
Wind  
Wind Speed 1 mph (WNW)    
Max Wind Speed 10 mph    
Max Gust Speed 18 mph    
Visibility 9 miles    
Events Fog    
Averages and records for this station are not official NWS values.
T = Trace of Precipitation, MM = Missing Value Source: NWS Daily Summary

Daily Weather History Graph

Daily Weather History Graph

Search for Another Location

Airport or City:

Astronomy

Aug. 01, 2019 Rise Set
Actual Time 6:33 AM EDT 9:09 PM EDT
Civil Twilight 6:00 AM EDT 9:42 PM EDT
Nautical Twilight 5:19 AM EDT 10:23 PM EDT
Astronomical Twilight 4:32 AM EDT 11:10 PM EDT
Moon 6:56 AM EDT (8/1) 9:55 PM EDT (8/1)
Length of Visible Light 15h 41m
Length of Day
14h 35m
New Moon, 0% of the Moon is Illuminated
Aug 1
New Moon
Aug 7
First Quarter
Aug 15
Full
Aug 23
Last Quarter
Aug 30
New

Hourly Weather History & Observations

Time (EDT) Temp. Dew Point Humidity Pressure Visibility Wind Dir Wind Speed Gust Speed Precip Events Conditions
12:19 AM 53.6 °F 53.1 °F 98% 30.17 in 10.0 mi Calm Calm - N/A   Clear
12:37 AM 53.6 °F 52.7 °F 97% 30.17 in 10.0 mi Calm Calm - N/A   Clear
12:55 AM 52.5 °F 51.8 °F 97% 30.17 in 10.0 mi Calm Calm - N/A   Clear
12:56 AM 52.2 °F 51.4 °F 97% 30.17 in 10.0 mi Calm Calm - N/A   Clear
1:15 AM 51.3 °F 50.5 °F 97% 30.17 in 10.0 mi Calm Calm - N/A   Clear
1:16 AM 51.1 °F 50.4 °F 97% 30.17 in 10.0 mi Calm Calm - N/A   Clear
1:35 AM 51.4 °F 50.9 °F 98% 30.17 in 10.0 mi Calm Calm - N/A   Clear
1:58 AM 51.4 °F 50.7 °F 97% 30.17 in 10.0 mi Calm Calm - N/A   Clear
2:16 AM 50.4 °F 49.6 °F 97% 30.17 in 10.0 mi Calm Calm - N/A   Clear
2:35 AM 50.2 °F 49.5 °F 97% 30.18 in 10.0 mi Calm Calm - N/A   Clear
2:36 AM 50.4 °F 49.6 °F 97% 30.18 in 10.0 mi Calm Calm - N/A   Clear
2:55 AM 50.7 °F 50.0 °F 97% 30.19 in 7.0 mi Calm Calm - N/A   Clear
2:56 AM 50.7 °F 50.2 °F 98% 30.19 in 10.0 mi Calm Calm - N/A   Clear
3:19 AM 48.9 °F 48.2 °F 97% 30.19 in 2.0 mi Calm Calm - N/A   Clear
3:37 AM 49.6 °F 49.1 °F 98% 30.19 in 1.2 mi Calm Calm - N/A   Mist
3:55 AM 49.3 °F 48.6 °F 97% 30.19 in 2.0 mi Calm Calm - N/A   Clear
4:15 AM 48.2 °F 47.5 °F 97% 30.19 in 4.0 mi Calm Calm - N/A   Clear
4:58 AM 47.5 °F 46.8 °F 97% 30.18 in 10.0 mi Calm Calm - N/A   Clear
5:15 AM 49.3 °F 48.6 °F 97% 30.18 in 10.0 mi Calm Calm - N/A   Clear
5:35 AM 49.1 °F 48.4 °F 97% 30.19 in 7.0 mi Calm Calm - N/A   Clear
5:36 AM 49.1 °F 48.4 °F 97% 30.19 in 7.0 mi Calm Calm - N/A   Clear
5:55 AM 48.2 °F 47.3 °F 97% 30.19 in 4.0 mi Calm Calm - N/A   Clear
6:19 AM 47.1 °F 46.4 °F 97% 30.19 in 1.2 mi Calm Calm - N/A   Mist
6:36 AM 47.1 °F 46.4 °F 97% 30.20 in 10.0 mi Calm Calm - N/A   Clear
6:55 AM 47.5 °F 46.8 °F 97% 30.20 in 0.5 mi Calm Calm - N/A Fog Fog
6:56 AM 47.3 °F 46.6 °F 97% 30.20 in 0.5 mi Calm Calm - N/A Fog Fog
7:15 AM 46.8 °F 46.0 °F 97% 30.20 in 10.0 mi Calm Calm - N/A   Clear
7:16 AM 46.9 °F 46.2 °F 97% 30.20 in 10.0 mi Calm Calm - N/A   Clear
7:35 AM 49.8 °F 49.1 °F 97% 30.20 in 10.0 mi Calm Calm - N/A   Clear
7:58 AM 52.9 °F 52.0 °F 97% 30.21 in 10.0 mi Calm Calm - N/A   Clear
8:16 AM 54.9 °F 54.0 °F 97% 30.22 in 10.0 mi Calm Calm - N/A   Clear
8:35 AM 57.4 °F 55.6 °F 94% 30.22 in 10.0 mi Calm Calm - N/A   Clear
8:36 AM 57.4 °F 55.6 °F 94% 30.22 in 10.0 mi Calm Calm - N/A   Clear
8:55 AM 59.9 °F 56.7 °F 89% 30.22 in 10.0 mi East 3.5 mph - N/A   Clear
9:19 AM 63.5 °F 57.6 °F 81% 30.22 in 10.0 mi Calm Calm - N/A   Clear
9:36 AM 64.9 °F 57.6 °F 77% 30.22 in 10.0 mi Calm Calm - N/A   Clear
9:55 AM 66.7 °F 57.6 °F 72% 30.22 in 10.0 mi Calm Calm - N/A   Clear
9:56 AM 66.9 °F 57.9 °F 73% 30.22 in 10.0 mi Calm Calm - N/A   Clear
10:15 AM 68.2 °F 57.2 °F 68% 30.22 in 10.0 mi Calm Calm - N/A   Clear
10:16 AM 68.4 °F 57.4 °F 68% 30.22 in 10.0 mi Calm Calm - N/A   Clear
10:35 AM 70.3 °F 58.3 °F 66% 30.22 in 10.0 mi Calm Calm - N/A   Clear
10:40 AM 70.0 °F 57.2 °F 64% 30.22 in 10.0 mi Calm Calm - N/A   Clear
10:57 AM 71.6 °F 56.8 °F 60% 30.22 in 10.0 mi Calm Calm - N/A   Clear
11:16 AM 72.3 °F 55.9 °F 56% 30.22 in 10.0 mi Calm Calm - N/A   Clear
11:35 AM 73.9 °F 57.2 °F 56% 30.23 in 10.0 mi Calm Calm - N/A   Clear
11:36 AM 73.8 °F 57.4 °F 56% 30.23 in 10.0 mi West 3.5 mph - N/A   Clear
11:55 AM 73.0 °F 58.3 °F 60% 30.22 in 10.0 mi West 4.6 mph - N/A   Clear
11:56 AM 73.2 °F 58.3 °F 59% 30.22 in 10.0 mi West 5.8 mph - N/A   Clear
12:18 PM 72.9 °F 58.5 °F 60% 30.23 in 10.0 mi WSW 6.9 mph - N/A   Clear
12:37 PM 73.0 °F 58.3 °F 60% 30.22 in 10.0 mi West 4.6 mph - N/A   Clear
12:55 PM 73.4 °F 57.9 °F 58% 30.22 in 10.0 mi West 5.8 mph - N/A   Clear
12:56 PM 73.4 °F 58.1 °F 59% 30.22 in 10.0 mi West 3.5 mph - N/A   Clear
1:15 PM 73.9 °F 58.3 °F 58% 30.22 in 10.0 mi West 5.8 mph - N/A   Clear
1:16 PM 73.9 °F 58.6 °F 59% 30.22 in 10.0 mi West 6.9 mph - N/A   Clear
1:35 PM 75.0 °F 58.3 °F 56% 30.21 in 10.0 mi West 5.8 mph - N/A   Clear
1:40 PM 74.5 °F 57.4 °F 55% 30.21 in 10.0 mi WSW 4.6 mph - N/A   Clear
1:57 PM 75.7 °F 57.6 °F 53% 30.21 in 10.0 mi West 5.8 mph - N/A   Clear
2:16 PM 76.1 °F 56.5 °F 50% 30.20 in 10.0 mi West 5.8 mph - N/A   Clear
2:35 PM 76.5 °F 54.0 °F 46% 30.20 in 10.0 mi West 8.1 mph - N/A   Clear
2:36 PM 76.3 °F 54.0 °F 46% 30.20 in 10.0 mi West 5.8 mph - N/A   Clear
2:55 PM 76.8 °F 47.8 °F 36% 30.19 in 10.0 mi WSW 4.6 mph - N/A   Clear
2:56 PM 76.8 °F 47.5 °F 35% 30.19 in 10.0 mi WSW 3.5 mph - N/A   Clear
3:19 PM 76.8 °F 48.9 °F 37% 30.19 in 10.0 mi West 3.5 mph - N/A   Clear
3:36 PM 77.0 °F 50.4 °F 39% 30.19 in 10.0 mi WNW 4.6 mph - N/A   Clear
3:55 PM 77.4 °F 49.1 °F 37% 30.18 in 10.0 mi WNW 4.6 mph - N/A   Clear
3:56 PM 77.4 °F 49.3 °F 37% 30.18 in 10.0 mi West 4.6 mph - N/A   Clear
4:15 PM 76.8 °F 49.3 °F 38% 30.18 in 10.0 mi NW 4.6 mph - N/A   Clear
4:35 PM 76.5 °F 49.1 °F 38% 30.19 in 10.0 mi WNW 6.9 mph - N/A   Clear
4:58 PM 76.1 °F 47.5 °F 36% 30.19 in 10.0 mi West 8.1 mph - N/A   Clear
5:16 PM 76.5 °F 48.7 °F 38% 30.18 in 10.0 mi NW 6.9 mph - N/A   Clear
5:35 PM 76.1 °F 48.6 °F 38% 30.18 in 10.0 mi NW 9.2 mph 18.4 mph N/A   Clear
5:55 PM 75.9 °F 47.5 °F 36% 30.18 in 10.0 mi WNW 8.1 mph - N/A   Clear
6:19 PM 75.0 °F 46.8 °F 37% 30.18 in 10.0 mi NW 8.1 mph - N/A   Clear
6:37 PM 74.5 °F 48.7 °F 40% 30.18 in 10.0 mi NW 6.9 mph 16.1 mph N/A   Clear
6:55 PM 73.8 °F 54.0 °F 50% 30.18 in 10.0 mi NNW 10.4 mph - N/A   Clear
6:56 PM 73.6 °F 54.1 °F 50% 30.18 in 10.0 mi NNW 10.4 mph - N/A   Clear
7:15 PM 72.9 °F 54.3 °F 52% 30.18 in 10.0 mi North 10.4 mph - N/A   Clear
7:35 PM 72.0 °F 55.6 °F 56% 30.18 in 10.0 mi NNW 5.8 mph - N/A   Clear
7:58 PM 70.7 °F 55.4 °F 58% 30.17 in 10.0 mi NNW 5.8 mph - N/A   Clear
8:16 PM 69.1 °F 56.3 °F 64% 30.17 in 10.0 mi NNW 3.5 mph - N/A   Clear
8:35 PM 68.0 °F 56.7 °F 67% 30.17 in 10.0 mi Calm Calm - N/A   Clear
8:55 PM 65.1 °F 56.8 °F 75% 30.17 in 10.0 mi Calm Calm - N/A   Clear
9:19 PM 64.0 °F 57.4 °F 79% 30.17 in 10.0 mi Calm Calm - N/A   Clear
9:37 PM 61.7 °F 57.0 °F 85% 30.17 in 10.0 mi Calm Calm - N/A   Clear
9:55 PM 58.1 °F 55.8 °F 92% 30.17 in 5.0 mi Calm Calm - N/A   Clear
10:15 PM 60.6 °F 57.0 °F 88% 30.17 in 10.0 mi Calm Calm - N/A   Clear
10:35 PM 59.0 °F 56.7 °F 92% 30.18 in 10.0 mi Calm Calm - N/A   Clear
10:58 PM 57.9 °F 56.8 °F 96% 30.18 in 10.0 mi Calm Calm - N/A   Clear
11:16 PM 56.5 °F 55.8 °F 97% 30.18 in 10.0 mi Calm Calm - N/A   Clear
11:35 PM 56.3 °F 55.6 °F 97% 30.18 in 10.0 mi Calm Calm - N/A   Clear
11:55 PM 54.5 °F 53.8 °F 97% 30.17 in 10.0 mi Calm Calm - N/A   Clear